User: anonymous   Login
Location: Unspecified
(0.0000°N, 0.0000°E)
Time: 19:24:22
(UTC+00:00)
Language:

STARLINK-33593 - Orbit

View from above orbital plane
View from above orbital plane
View from above satellite
View from above satellite

Ground track
Ground track

The orbit is defined by the following mean orbital elements,

1 62780U          26145.58335647 +.00000000 +00000-0 -12352-4 0 00003
2 62780  53.1604 324.9782 0000837  58.7635 108.2598 15.34392330    07
Epoch (UTC): 25 May 2026 14:00:01
Eccentricity: 0.0000837
inclination: 53.1604°
perigee height: 462 km
apogee height: 463 km
right ascension of ascending node: 324.9782°
argument of perigee: 58.7635°
revolutions per day: 15.34392330
mean anomaly at epoch: 108.2598°

The dashed part of the orbit path shows where the satellite is in the earth's shadow,  

DLR